Wind_Speed
32 29 26 23 23 21 19 17 14 13 12 12 11 10 10 10 11 11 12 13 14 15
31 29 27 25 22 19 18 16 14 13 12 11 11 10 11 11 11 12 13 13 14 15
29 27 26 24 22 21 19 16 14 12 11 11 10 11 11 11 11 12 13 14 15 15
29 27 26 25 23 21 18 14 12 11 10 10 10 11 11 11 12 12 13 14 15 16
28 27 24 22 21 19 16 14 12 10 9 9 10 11 11 12 13 13 14 14 16 17
25 23 21 18 15 13 11 9 7 6 7 9 10 11 13 13 13 14 14 15 16 17
21 19 17 14 11 9 7 6 5 7 9 10 14 13 12 12 12 13 15 15 17 18
18 16 13 11 10 7 8 10 11 11 11 13 11 11 12 12 12 14 16 18 17 18
14 12 12 15 18 18 15 11 7 9 12 9 10 11 12 10 14 17 19 19 18 19
16 14 14 17 15 11 7 5 9 8 10 9 8 9 10 8 13 17 17 18 20 22
15 15 14 11 8 4 6 7 9 10 9 6 7 9 10 9 11 15 16 18 20 23
13 12 10 7 5 7 8 8 8 7 6 6 6 9 10 8 14 15 17 19 22 28
10 8 6 6 7 8 9 8 6 5 5 7 8 10 10 9 12 17 18 23 27 24
6 4 5 7 9 8 8 6 5 4 5 8 10 9 9 8 14 14 22 24 26 27
Wind_Direction
210 212 216 218 217 219 223 229 238 247 258 270 277 282 287 294 301 305 307 309 310 309
208 208 211 212 215 220 225 231 238 247 259 267 273 280 287 292 296 300 303 305 306 306
207 207 209 211 213 216 222 228 237 248 259 266 274 280 285 289 294 299 301 304 302 304
205 206 206 208 210 215 222 230 240 250 258 266 274 281 287 292 294 299 299 301 303 306
200 201 204 206 208 212 218 226 237 248 261 273 280 285 289 292 296 297 298 303 302 304
195 198 200 204 208 213 221 228 234 249 270 283 286 288 288 293 294 296 299 302 302 306
189 191 194 198 201 203 199 214 243 271 277 280 277 280 286 287 292 298 301 304 307 308
186 189 192 196 192 210 241 249 248 255 276 274 278 283 287 288 297 307 310 310 309 311
188 186 193 217 231 239 240 243 251 268 262 273 280 283 292 305 308 304 304 308 313 315
197 214 220 233 232 233 229 257 255 264 267 269 284 293 297 308 292 296 307 313 318 317
203 215 225 222 213 230 250 247 263 255 261 278 290 298 306 310 299 305 316 323 321 321
217 215 210 212 224 235 252 256 243 247 269 287 295 305 316 337 311 318 329 328 324 327
212 211 216 232 244 248 238 236 231 250 286 306 316 316 316 323 315 323 333 328 326 329
205 214 239 240 232 230 230 229 233 263 304 315 312 311 317 329 322 332 327 323 328 330
Height
1460 1467 1473 1477 1480 1483 1485 1488 1490 1491 1492 1493 1493 1494 1494 1493 1492 1492 1492 1493 1492 1491
1457 1462 1467 1472 1477 1481 1483 1485 1487 1488 1489 1490 1491 1491 1491 1490 1490 1490 1490 1490 1489 1488
1456 1461 1465 1469 1473 1475 1478 1481 1483 1484 1486 1487 1488 1488 1489 1488 1488 1487 1487 1487 1486 1484
1454 1459 1462 1464 1467 1471 1474 1477 1479 1481 1482 1484 1485 1485 1486 1486 1485 1484 1484 1483 1482 1480
1451 1455 1460 1463 1465 1467 1470 1472 1475 1477 1479 1481 1482 1482 1482 1482 1482 1481 1480 1479 1478 1477
1449 1454 1458 1462 1465 1467 1468 1470 1472 1474 1475 1476 1477 1478 1478 1478 1478 1478 1476 1475 1474 1473
1449 1452 1455 1459 1463 1465 1466 1468 1469 1470 1471 1472 1474 1474 1474 1475 1474 1474 1473 1472 1470 1468
1448 1452 1454 1458 1461 1463 1464 1465 1466 1468 1469 1470 1470 1470 1471 1471 1469 1468 1468 1468 1465 1463
1449 1451 1454 1457 1458 1460 1461 1462 1463 1465 1467 1466 1466 1466 1467 1467 1465 1465 1464 1463 1461 1458
1447 1448 1452 1454 1455 1456 1457 1459 1461 1462 1464 1463 1462 1462 1462 1463 1462 1462 1461 1458 1455 1451
1445 1447 1449 1451 1452 1453 1455 1457 1459 1461 1460 1459 1458 1459 1459 1459 1458 1458 1456 1453 1449 1446
1443 1444 1447 1448 1449 1451 1453 1455 1458 1458 1457 1456 1456 1455 1455 1456 1455 1453 1450 1447 1443 1440
1442 1443 1445 1447 1448 1450 1452 1454 1455 1455 1454 1454 1453 1451 1452 1453 1451 1448 1444 1440 1440 1435
1440 1442 1444 1446 1447 1448 1450 1451 1451 1451 1451 1450 1450 1450 1448 1449 1447 1444 1440 1437 1433 1431